Location: Seminole
(32.7190°N, 102.6440°W)
Time: 03:46:28
(UTC-05:00)

Meteor 2-10 - Visible Passes

Search period start: 24 April 2018 00:00
Search period end: 04 May 2018 00:00
Orbit: 738 x 869 km, 81.2° (Epoch: 23 April)

Date Brightness Start Highest point End Pass type
(mag) Time Alt. Az. Time Alt. Az. Time Alt. Az.
26 Apr 5.3 06:37:11 10° N 06:42:11 45° ENE 06:47:01 10° SSE visible
26 Apr 7.7 21:18:17 10° W 21:20:45 13° WNW 21:23:13 10° NW visible
27 Apr 6.2 06:11:30 10° NNE 06:16:01 29° ENE 06:20:24 10° SE visible
27 Apr 7.3 20:50:29 10° WSW 20:54:29 19° WNW 20:58:29 10° NNW visible
28 Apr 6.9 05:46:07 10° NNE 05:49:48 19° ENE 05:53:24 10° ESE visible
29 Apr 7.2 05:21:23 10° NE 05:23:30 12° ENE 05:25:36 10° E visible
30 Apr 4.0 06:34:37 10° N 06:39:47 87° W 06:44:49 10° S visible
01 May 4.6 06:08:38 10° N 06:13:43 60° E 06:18:40 10° SSE visible
02 May 5.5 05:42:49 10° N 05:47:35 38° ENE 05:52:14 10° SE visible
03 May 6.2 05:17:14 10° NNE 05:21:23 25° ENE 05:25:29 10° SE visible
